This demonstration page uses our WeatherBlox Daily Observations layout. Learn more.

Left ArrowRight Arrow

Hourly Observations for July 22, 2022

Temp ( °F °C ) Dew Point ( °F °C ) Humidity (%) Winds ( mph kmh ) Pressure ( in mb ) Visibility ( mi km ) Precip ( " mm )
12:53 am 00:53 Clear 59 15 40 4.4 49 49 E 3 6 29.95 1014 10 16 0.00 0.00
1:53 am 01:53 Clear 59 15 43 6.1 56 56 E 5 7 29.94 1014 10 16 0.00 0.00
2:53 am 02:53 Clear 54 12.2 43 6.1 67 67 SE 6 9 29.96 1014 10 16 0.00 0.00
3:53 am 03:53 Clear 54 12.2 41 5 62 62 Calm 29.95 1014 10 16 0.00 0.00
4:53 am 04:53 Partly Cloudy 52 11.1 42 5.6 69 69 Calm 29.96 1015 10 16 0.00 0.00
5:53 am 05:53 Clear 50 10 41 5 71 71 Calm 29.98 1015 10 16 0.00 0.00
6:53 am 06:53 Sunny 49 9.4 41 5 74 74 Calm 30.03 1017 10 16 0.00 0.00
7:53 am 07:53 Sunny 59 15 42 5.6 54 54 Calm 30.01 1016 10 16 0.00 0.00
8:53 am 08:53 Sunny 67 19.4 43 6.1 42 42 Calm 30.02 1017 10 16 0.00 0.00
9:53 am 09:53 Sunny 79 26.1 44 6.7 29 29 NNE 6 9 29.98 1015 10 16 0.00 0.00
10:53 am 10:53 Sunny 86 30 42 5.6 21 21 NNE 9 15 29.95 1014 10 16 0.00 0.00
11:53 am 11:53 Sunny 90 32.2 36 2.2 15 15 NNE 8 13 29.93 1014 10 16 0.00 0.00
12:53 pm 12:53 Sunny 91 32.8 37 2.8 15 15 N 6 9 29.91 1013 10 16 0.00 0.00
1:53 pm 13:53 Sunny 94 34.4 38 3.3 14 14 NNW 8 13 29.88 1012 10 16 0.00 0.00
2:53 pm 14:53 Sunny 91 32.8 36 2.2 14 14 S 3 6 29.88 1012 10 16 0.00 0.00
3:53 pm 15:53 Sunny 95 35 37 2.8 13 13 VRB 3 6 29.84 1011 10 16 0.00 0.00
4:53 pm 16:53 Sunny 90 32.2 40 4.4 17 17 SW 9 15 29.85 1011 10 16 0.00 0.00
5:53 pm 17:53 Sunny 88 31.1 42 5.6 20 20 SSE 10 17 29.85 1011 10 16 0.00 0.00
6:53 pm 18:53 Mostly Sunny 83 28.3 46 7.8 27 27 SSE 8 13 29.87 1012 10 16 0.00 0.00
7:27 pm 19:27 Sunny with Nearby Thunderstorms 85 29.4 48 8.9 28 28 undefined N/A 29.50 999 10 16 0.00 0.00
7:53 pm 19:53 Sunny 81 27.2 50 10 34 34 S 5 7 29.85 1011 10 16 0.00 0.00
8:53 pm 20:53 Clear 71 21.7 44 6.7 38 38 Calm 29.87 1011 10 16 0.00 0.00
9:53 pm 21:53 Clear 65 18.3 47 8.3 52 52 SW 3 6 29.88 1012 10 16 0.00 0.00
10:53 pm 22:53 Clear 65 18.3 51 10.6 61 61 Calm 29.88 1012 10 16 0.00 0.00
11:53 pm 23:53 Mostly Clear 68 20 45 7.2 44 44 NW 8 13 29.86 1011 10 16 0.00 0.00

Powered by AerisWeather